Weather History for Decatur, AL

Change the Weather History Date:

Tuesday, November 29, 2011

  Actual Average Record
Temperature  
Mean Temperature 36 °F -  
Max Temperature 39 °F 54 °F 73 °F (1970)
Min Temperature 33 °F 33 °F 16 °F (1955)
Degree Days  
Heating Degree Days 29    
Moisture  
Dew Point 33 °F    
Average Humidity 89    
Maximum Humidity 100    
Minimum Humidity 79    
Precipitation  
Precipitation 0.08 in - - ()
Sea Level Pressure  
Sea Level Pressure 29.88 in    
Wind  
Wind Speed 11 mph (WSW)    
Max Wind Speed 17 mph    
Max Gust Speed 26 mph    
Visibility 9 miles    
Events Rain , Snow    
Averages and records for this station are not official NWS values.
T = Trace of Precipitation, MM = Missing Value Source: NWS Daily Summary

Daily Weather History Graph

Daily Weather History Graph

Search for Another Location

Airport:

Trip Planner

Search our weather history database for the weather conditions in past years. The results will help you decide how hot, cold, wet, or windy it might be!

Date:

Astronomy

Nov. 29, 2011 Rise Set
Actual Time 6:34 AM CST 4:37 PM CST
Civil Twilight 6:07 AM CST 5:04 PM CST
Nautical Twilight 5:36 AM CST 5:35 PM CST
Astronomical Twilight 5:05 AM CST 6:06 PM CST
Moon 10:24 AM CST (11/29) 9:25 PM CST (11/29)
Length of Visible Light 10h 57m
Length of Day
10h 02m
Waxing Crescent, 24% of the Moon is Illuminated
Nov 29
Waxing Crescent
Dec 2
First Quarter
Dec 10
Full
Dec 17
Last Quarter
Dec 24
New

Hourly Weather History & Observations

Time (CST) Temp. Windchill Dew Point Humidity Pressure Visibility Wind Dir Wind Speed Gust Speed Precip Events Conditions
12:45 AM 35.6 °F 27.5 °F 35.6 °F 100% 29.80 in 10.0 mi SSW 11.5 mph - 0.01 in Rain Light Rain
1:20 AM 35.6 °F 27.5 °F 35.6 °F 100% 29.79 in 9.0 mi SSW 11.5 mph - 0.01 in Rain Light Rain
1:28 AM 35.6 °F 28.0 °F 35.6 °F 100% 29.79 in 9.0 mi SSW 10.4 mph - 0.01 in Rain Light Rain
1:40 AM 35.6 °F 28.6 °F 35.6 °F 100% 29.80 in 9.0 mi SSW 9.2 mph - 0.01 in Rain Light Rain
1:53 AM 36.0 °F 28.5 °F 33.1 °F 89% 29.81 in 10.0 mi SSW 10.4 mph - 0.02 in Rain Light Rain
2:53 AM 36.0 °F 28.0 °F 33.1 °F 89% 29.79 in 10.0 mi SSW 11.5 mph - 0.01 in Rain Light Rain
3:23 AM 35.6 °F 28.6 °F 32.0 °F 87% 29.78 in 7.0 mi SW 9.2 mph - 0.01 in Snow Light Snow
3:35 AM 35.6 °F 29.2 °F 32.0 °F 87% 29.78 in 6.0 mi SW 8.1 mph - 0.02 in Snow Light Snow
3:48 AM 33.8 °F 29.6 °F 33.8 °F 100% 29.78 in 5.0 mi SW 4.6 mph - 0.03 in Snow Light Snow
3:53 AM 34.0 °F 28.8 °F 33.1 °F 96% 29.79 in 5.0 mi SW 5.8 mph - 0.03 in Snow Light Snow
4:26 AM 35.6 °F 30.7 °F 33.8 °F 93% 29.78 in 10.0 mi SSW 5.8 mph - 0.01 in Rain Light Freezing Rain
4:53 AM 36.0 °F 28.5 °F 33.1 °F 89% 29.79 in 10.0 mi SSW 10.4 mph - 0.01 in Rain Light Freezing Rain
5:01 AM 35.6 °F 27.5 °F 33.8 °F 93% 29.78 in 10.0 mi SSW 11.5 mph - 0.00 in Rain Light Freezing Rain
5:32 AM 35.6 °F 29.2 °F 33.8 °F 93% 29.79 in 10.0 mi SW 8.1 mph - 0.00 in Rain Light Freezing Rain
5:50 AM 35.6 °F 29.2 °F 33.8 °F 93% 29.78 in 10.0 mi SW 8.1 mph - 0.00 in Rain Light Freezing Rain
5:53 AM 35.1 °F 27.9 °F 32.0 °F 89% 29.79 in 10.0 mi SW 9.2 mph - 0.00 in Rain Light Rain
5:58 AM 35.6 °F 28.6 °F 32.0 °F 87% 29.79 in 10.0 mi SW 9.2 mph - 0.00 in Rain Light Freezing Rain
6:53 AM 35.1 °F 27.9 °F 32.0 °F 89% 29.81 in 10.0 mi SW 9.2 mph - 0.00 in Rain Light Freezing Rain
6:58 AM 35.6 °F 28.6 °F 32.0 °F 87% 29.81 in 10.0 mi SW 9.2 mph - 0.00 in   Overcast
7:06 AM 35.6 °F 29.2 °F 32.0 °F 87% 29.81 in 10.0 mi SW 8.1 mph - 0.00 in   Overcast
7:36 AM 35.6 °F 27.1 °F 32.0 °F 87% 29.82 in 10.0 mi SW 12.7 mph - 0.00 in   Overcast
7:53 AM 36.0 °F 28.5 °F 32.0 °F 86% 29.83 in 10.0 mi WSW 10.4 mph - 0.00 in   Overcast
8:01 AM 35.6 °F 27.5 °F 32.0 °F 87% 29.82 in 10.0 mi SW 11.5 mph - N/A   Overcast
8:53 AM 36.0 °F 28.0 °F 33.1 °F 89% 29.84 in 9.0 mi SW 11.5 mph 18.4 mph 0.00 in   Overcast
9:07 AM 35.6 °F 29.9 °F 33.8 °F 93% 29.85 in 8.0 mi SW 6.9 mph - 0.00 in Rain Light Freezing Rain
9:26 AM 35.6 °F 28.6 °F 33.8 °F 93% 29.85 in 10.0 mi SW 9.2 mph - 0.00 in   Overcast
9:53 AM 36.0 °F 28.5 °F 34.0 °F 93% 29.87 in 10.0 mi SW 10.4 mph - 0.01 in   Overcast
10:53 AM 37.0 °F 28.5 °F 33.1 °F 86% 29.88 in 10.0 mi West 13.8 mph - 0.00 in Rain Light Rain
11:48 AM 37.4 °F 29.3 °F 33.8 °F 87% 29.86 in 10.0 mi WSW 12.7 mph - 0.00 in   Overcast
11:53 AM 37.9 °F 29.2 °F 33.1 °F 83% 29.87 in 10.0 mi West 15.0 mph 19.6 mph 0.00 in   Overcast
12:08 PM 37.4 °F 28.9 °F 33.8 °F 87% 29.86 in 9.0 mi West 13.8 mph - 0.00 in Rain Light Rain
12:24 PM 39.2 °F 30.8 °F 33.8 °F 81% 29.87 in 10.0 mi West 15.0 mph - 0.00 in   Overcast
12:53 PM 37.9 °F 28.5 °F 32.0 °F 79% 29.89 in 10.0 mi West 17.3 mph 24.2 mph 0.00 in   Overcast
1:44 PM 37.4 °F 28.5 °F 33.8 °F 87% 29.89 in 10.0 mi West 15.0 mph - 0.00 in   Overcast
1:53 PM 37.9 °F 29.2 °F 33.1 °F 83% 29.91 in 10.0 mi West 15.0 mph - 0.00 in   Overcast
2:53 PM 39.0 °F 30.6 °F 34.0 °F 82% 29.93 in 10.0 mi West 15.0 mph 21.9 mph N/A   Overcast
3:33 PM 37.4 °F 28.9 °F 33.8 °F 87% 29.95 in 5.0 mi West 13.8 mph 26.5 mph N/A   Overcast
3:41 PM 37.4 °F 28.5 °F 33.8 °F 87% 29.95 in 8.0 mi West 15.0 mph 25.3 mph N/A   Overcast
3:53 PM 37.9 °F 28.5 °F 34.0 °F 86% 29.97 in 8.0 mi West 17.3 mph - N/A   Overcast
4:53 PM 37.9 °F 30.5 °F 35.1 °F 89% 29.99 in 6.0 mi WNW 11.5 mph - 0.00 in Rain Light Rain
5:14 PM 37.4 °F 28.9 °F 33.8 °F 87% 29.99 in 10.0 mi WNW 13.8 mph - 0.00 in   Overcast
5:53 PM 37.9 °F 29.6 °F 34.0 °F 86% 30.03 in 10.0 mi WNW 13.8 mph 21.9 mph 0.00 in   Overcast
6:38 PM 37.4 °F 29.3 °F 33.8 °F 87% 30.04 in 10.0 mi WNW 12.7 mph - N/A   Overcast
6:53 PM 37.0 °F 28.1 °F 33.1 °F 86% 30.06 in 9.0 mi WNW 15.0 mph - 0.00 in Rain Light Rain
7:53 PM 37.0 °F 28.9 °F 33.1 °F 86% 30.08 in 10.0 mi NW 12.7 mph - 0.00 in   Overcast
8:06 PM 37.4 °F 28.9 °F 33.8 °F 87% 30.07 in 10.0 mi WNW 13.8 mph - N/A   Overcast
8:53 PM 37.0 °F 28.9 °F 33.1 °F 86% 30.09 in 10.0 mi WNW 12.7 mph - N/A   Overcast
9:53 PM 37.0 °F 29.8 °F 34.0 °F 89% 30.10 in 10.0 mi WNW 10.4 mph - N/A   Overcast
10:53 PM 37.9 °F 30.5 °F 34.0 °F 86% 30.09 in 9.0 mi WNW 11.5 mph - N/A   Overcast
11:53 PM 37.9 °F 30.9 °F 34.0 °F 86% 30.09 in 8.0 mi WNW 10.4 mph - N/A   Overcast